Preview of NWS' New Version of Forecast
This preview is not operational and should not be used for support decisions.

Regional Weather Roundup (RWR)

Issued by National Weather Service (NWS)

                            
000
ASUS44 KMEG 221400
RWRTN 
TENNESSEE HOURLY STATE WEATHER ROUNDUP
NATIONAL WEATHER SERVICE MEMPHIS TN
900 AM CDT MON JUL 22 2019

TNZ002-004-019-021-049-052-054-088>092-221500-
WEST TENNESSEE
  
CITY           SKY/WX    TMP DP  RH WIND       PRES   REMARKS
MEMPHIS INTL   PTSUNNY   79  74  84 SW9       29.96S                  
NWS MEMPHIS      N/A     80 N/A N/A MISG        N/A                   
JACKSON        CLOUDY    78  76  93 SW7       29.96S                  
DYERSBURG      CLOUDY    80  77  90 SW7       29.94F                  
HUNTINGDON     PTSUNNY   82  77  83 VRB7      29.94F HX  91           
LEXINGTON      PTSUNNY   77  75  94 S5        29.95S                  
SELMER         PTSUNNY   79  75  89 S7        29.97S                  
$$

TNZ008-025-027-028-033-062-065-066-221500-
NORTH MIDDLE TENNESSEE
  
CITY           SKY/WX    TMP DP  RH WIND       PRES   REMARKS
NASHVILLE      CLOUDY    81  73  76 SW9       29.96F                  
CLARKSVILLE    CLOUDY    79  75  87 SW8       29.93F                  
LEBANON        MOSUNNY   77  73  88 SW7       29.94F                  
SMYRNA         FAIR      79  75  87 VRB6      29.97F                  
MURFREESBORO   MOSUNNY   81  73  78 SW7       29.96F                  
COOKEVILLE     PTSUNNY   75  73  94 S10       29.99F                  
LIVINGSTON     CLOUDY    73  72  94 SW8       29.99F FOG              
GALLATIN       CLOUDY    79  75  89 VRB5      29.97F                  
CROSSVILLE     PTSUNNY   74  70  87 W5        30.05S                  
$$

TNZ061-075-076-078-094-096-097-221500-
SOUTH MIDDLE TENNESSEE
  
CITY           SKY/WX    TMP DP  RH WIND       PRES   REMARKS
LEWISBURG      PTSUNNY   81  75  83 S10       29.99S                  
FAYETTEVILLE   CLOUDY    77  75  94 SW9       30.02R                  
WINCHESTER     MOSUNNY   79  73  83 SW9       30.01F                  
$$

TNZ017-018-042-046-047-221500-
NORTHEAST TENNESSEE
  
CITY           SKY/WX    TMP DP  RH WIND       PRES   REMARKS
TRI CITIES     CLOUDY    74  71  91 S3        30.03F                  
$$

TNZ012-013-036-069-073-074-221500-
CENTRAL EAST TENNESSEE
  
CITY           SKY/WX    TMP DP  RH WIND       PRES   REMARKS
KNOXVILLE      CLOUDY    77  71  82 SW14      30.00S                  
OAK RIDGE      CLOUDY    79  72  79 VRB5      30.01F                  
MORRISTOWN     CLOUDY    77  73  88 W8        30.01F                  
JACKSBORO      PTSUNNY   75  73  94 CALM      30.03F                  
$$

TNZ083-085-099-221500-
SOUTHEAST TENNESSEE
  
CITY           SKY/WX    TMP DP  RH WIND       PRES   REMARKS
CHATTANOOGA    LGT RAIN  78  74  87 S7        30.03R                  
$$

SKY/WX REPORTED AS FAIR MEANS FEW OR NO CLOUDS BELOW
12 THOUSAND FEET.